Вернуться в каталог

CZ-6A DEB

АктивенSSO
NORAD 54990·DEBRIS·🇨🇳 China

Запущен Nov 11, 2022 с Taiyuan Satellite Launch Center

Loading…

Ближайшие Пролёты (ближайшие 24 часа)

TLE

СвежийSource: Space-Track

Эпоха: Sep 14, 2026, 09:23 UTC

1 54990U 22151UF  26257.39112607  .00005037  00000-0  10033-2 0  9993
2 54990  98.6349 315.1875 0074419  53.5605 307.2424 14.60746269201401

Отслеживайте CZ-6A DEB в реальном времени с AllMySat

Download on the App Store